Location: Unspecified
(0.0000°N, 0.0000°E)
Time: 15:38:33
(UTC+00:00)

USA 238 DEB - Visible Passes

Search period start: 28 May 2023 00:00
Search period end: 07 June 2023 00:00
Orbit: 943 x 1270 km, 63.4° (Epoch: 22 May)

Date Brightness Start Highest point End Pass type
(mag) Time Alt. Az. Time Alt. Az. Time Alt. Az.
28 May 3.9 19:17:33 10° SSW 19:23:39 62° WNW 19:29:47 10° NNE visible
29 May 7.4 05:09:16 10° ENE 05:10:25 10° ENE 05:11:34 10° ENE visible
29 May 3.4 18:32:53 10° SSW 18:39:03 67° ESE 18:45:11 10° NNE visible
30 May 6.0 19:40:37 10° WSW 19:45:00 20° WNW 19:49:25 10° NNW visible
31 May 6.3 05:25:15 10° N 05:31:57 31° ENE 05:38:42 10° SE visible
31 May 4.9 18:54:36 10° SW 19:00:20 40° WNW 19:06:07 10° N visible
01 Jun 7.0 04:42:35 10° NNE 04:47:13 17° ENE 04:51:51 10° ESE visible
02 Jun 6.7 19:19:11 10° W 19:21:45 13° WNW 19:24:19 10° NW visible
03 Jun 5.4 05:01:19 10° N 05:08:41 44° ENE 05:16:05 10° SE visible
03 Jun 5.9 18:31:59 10° WSW 18:37:02 27° WNW 18:42:08 10° N visible
04 Jun 6.3 04:17:53 10° NNE 04:23:58 24° ENE 04:30:04 10° ESE visible
05 Jun 6.9 03:36:11 10° NE 03:39:12 12° ENE 03:42:12 10° E visible
05 Jun 4.1 05:22:11 10° NNW 05:30:05 79° WSW 05:37:59 10° SSE visible
06 Jun 4.6 04:37:39 10° NNW 04:45:24 62° ENE 04:53:10 10° SE visible
